Weather History for York, PA

Change the Weather History Date:

Wednesday, February 12, 2014

  Actual Average Record
Temperature  
Mean Temperature 10 °F -  
Max Temperature 23 °F 0 °F 71 °F (1999)
Min Temperature -4 °F - -4 °F (2014)
Degree Days  
Heating Degree Days 56    
Moisture  
Dew Point 7 °F    
Average Humidity 74    
Maximum Humidity 96    
Minimum Humidity 44    
Precipitation  
Precipitation 0.03 in - - ()
Sea Level Pressure  
Sea Level Pressure 30.40 in    
Wind  
Wind Speed 3 mph (ENE)    
Max Wind Speed 9 mph    
Max Gust Speed -    
Visibility 6 miles    
Events Snow    
Averages and records for this station are not official NWS values.
T = Trace of Precipitation, MM = Missing Value Source: NWS Daily Summary

Daily Weather History Graph

Daily Weather History Graph

Search for Another Location

Airport:

Trip Planner

Search our weather history database for the weather conditions in past years. The results will help you decide how hot, cold, wet, or windy it might be!

Date:

Astronomy

Feb. 12, 2014 Rise Set
Actual Time 7:03 AM EST 5:40 PM EST
Civil Twilight 6:36 AM EST 6:07 PM EST
Nautical Twilight 6:04 AM EST 6:39 PM EST
Astronomical Twilight 5:32 AM EST 7:11 PM EST
Moon 3:51 PM EST (2/12) 5:19 AM EST (2/12)
Length of Visible Light 11h 31m
Length of Day
10h 36m
Waxing Gibbous, 95% of the Moon is Illuminated
Feb 12
Waxing Gibbous
Feb 14
Full
Feb 22
Last Quarter
Mar 1
New
Mar 8
First Quarter

Hourly Weather History & Observations

Time (EST) Temp. Windchill Dew Point Humidity Pressure Visibility Wind Dir Wind Speed Gust Speed Precip Events Conditions
12:53 AM -0.0 °F - -2.9 °F 88% 30.51 in 9.0 mi Calm Calm - N/A   Clear
1:53 AM 1.9 °F - -2.0 °F 83% 30.53 in 10.0 mi Calm Calm - N/A   Clear
2:53 AM -0.0 °F -7.9 °F -4.0 °F 83% 30.53 in 7.0 mi West 3.5 mph - N/A   Clear
3:53 AM -0.9 °F - -6.0 °F 79% 30.53 in 8.0 mi Calm Calm - N/A   Clear
4:53 AM -2.0 °F - -6.0 °F 83% 30.52 in 8.0 mi Calm Calm - N/A   Clear
5:53 AM -4.0 °F - -7.1 °F 87% 30.55 in 9.0 mi Calm Calm - N/A   Clear
6:53 AM -4.0 °F - -8.0 °F 83% 30.54 in 9.0 mi Calm Calm - N/A   Clear
7:53 AM -2.9 °F - -6.0 °F 87% 30.58 in 7.0 mi Calm Calm - N/A   Clear
8:53 AM 3.9 °F - 3.0 °F 96% 30.56 in 7.0 mi Calm Calm - N/A   Clear
10:53 AM 15.1 °F 7.7 °F 3.9 °F 61% 30.56 in 10.0 mi ESE 4.6 mph - N/A   Clear
11:53 AM 19.0 °F 13.9 °F 3.0 °F 50% 30.53 in 10.0 mi East 3.5 mph - N/A   Clear
12:53 PM 19.9 °F - 3.0 °F 48% 30.49 in 10.0 mi Calm Calm - N/A   Clear
1:53 PM 21.0 °F 16.2 °F 1.9 °F 44% 30.45 in 10.0 mi Variable 3.5 mph - N/A   Clear
2:53 PM 21.9 °F - 3.9 °F 46% 30.45 in 10.0 mi Calm Calm - N/A   Clear
3:53 PM 23.0 °F 15.8 °F 8.1 °F 53% 30.42 in 10.0 mi East 5.8 mph - N/A   Clear
4:53 PM 23.0 °F 13.1 °F 10.9 °F 60% 30.39 in 10.0 mi East 9.2 mph - N/A   Clear
5:53 PM 23.0 °F 14.7 °F 12.0 °F 63% 30.37 in 10.0 mi East 6.9 mph - N/A   Clear
6:53 PM 21.9 °F 13.4 °F 12.0 °F 66% 30.36 in 10.0 mi NE 6.9 mph - N/A   Partly Cloudy
7:53 PM 21.9 °F 14.5 °F 10.9 °F 63% 30.35 in 10.0 mi ENE 5.8 mph - N/A   Overcast
8:09 PM 21.9 °F 12.5 °F 10.9 °F 63% 30.31 in 10.0 mi East 8.1 mph - N/A   Overcast
8:34 PM 21.9 °F 13.4 °F 12.9 °F 68% 30.32 in 2.0 mi East 6.9 mph - 0.00 in Snow Light Snow
8:42 PM 21.0 °F 12.4 °F 14.0 °F 74% 30.31 in 1.5 mi East 6.9 mph - 0.00 in Snow Light Snow
8:53 PM 21.0 °F 12.4 °F 15.1 °F 78% 30.34 in 2.0 mi East 6.9 mph - 0.00 in Snow Light Snow
9:06 PM 21.0 °F 12.4 °F 15.1 °F 78% 30.29 in 2.5 mi East 6.9 mph - 0.00 in Snow Light Snow
9:17 PM 21.0 °F 11.4 °F 15.1 °F 78% 30.28 in 2.5 mi East 8.1 mph - 0.00 in Snow Light Snow
9:24 PM 21.0 °F 11.4 °F 15.1 °F 78% 30.28 in 2.0 mi East 8.1 mph - 0.00 in Snow Light Snow
9:33 PM 19.9 °F 10.1 °F 16.0 °F 85% 30.28 in 1.5 mi East 8.1 mph - 0.00 in Snow Light Snow
9:53 PM 19.9 °F 11.1 °F 16.0 °F 85% 30.27 in 2.0 mi East 6.9 mph - 0.00 in Snow Light Snow
10:06 PM 19.9 °F 11.1 °F 16.0 °F 85% 30.26 in 1.5 mi ENE 6.9 mph - 0.00 in Snow Light Snow
10:53 PM 19.9 °F 11.1 °F 16.0 °F 85% 30.27 in 1.5 mi NE 6.9 mph - 0.01 in Snow Light Snow
11:30 PM 19.9 °F 12.1 °F 17.1 °F 89% 30.21 in 1.0 mi NNE 5.8 mph - 0.01 in Snow Light Snow
11:53 PM 19.9 °F 11.1 °F 16.0 °F 85% 30.24 in 1.0 mi NNE 6.9 mph - 0.02 in Snow Light Snow